www.pogodaiklimat.ru

Погода и климат >> Архив погоды >> Пакистан >> Рахим Яр Хан


ПОГОДА в Рахим Яр Хан

  • Прогноз погоды в Рахим Яр Хан
  • Монитор погоды в Рахим Яр Хан

АРХИВ ПОГОДЫ в Рахим Яр Хан

Время (UTC), дата Ветер
(напр.,м/с)
 
Видим.   Явления Облачность Т
(С)
Тd
(С)
f
(%)
Тe
(С)
Тes
(С)
Комфортность P
(гПа)
Po
(гПа)
Тmin
(С)
Tmax
(С)
R
(мм)
R24
(мм)
S
(см)
09 19.06 СВ 1 4000 м мгла ясно +38.0 +24.0 45 +49 +71 опасность
перегрева
999.2 990.1
15 19.06 штиль 0 4000 м дым ясно +33.5 +22.7 53 +43 +43 опасность
перегрева
998.4 989.2
18 19.06 штиль 0 4000 м ясно +31.5 +22.9 60 +41 +41 опасность
перегрева
999.9 990.6
21 19.06 штиль 0 4000 м 4/0
[Ac trans]
+30.0 +22.8 65 +40 +40 очень
душно
999.6 990.3
00 20.06 штиль 0 4000 м 4/0
[Ac trans]
+29.0 +23.2 71 +39 +39 очень
душно
999.9 990.6
06 20.06 З 3 4000 м ясно +36.5 +23.8 48 +47 +64 опасность
перегрева
1001.7 992.6
09 20.06 З 1 4000 м мгла 3/3 900 м
[Cu hum]
+40.0 +23.9 40 +51 +66 опасность
перегрева
999.5 990.5
18 20.06 С 1 2000 м мгла ясно +31.0 +20.6 54 +38 +38 очень
душно
1000.0 990.7
21 20.06 С 2 4000 м дым 3/3 1200 м
[Sc]
+28.5 +21.1 64 +36 +36 очень
душно
1001.0 991.6
00 21.06 СВ 1 4000 м дым 4/0
[Ac trans]
+28.0 +22.1 70 +36 +36 очень
душно
1000.9 991.5
03 21.06 С 1 2000 м пыль 4/0
[Ac trans]
+30.0 +21.1 59 +38 +43 очень
душно
1003.5 994.2 +27.6
06 21.06 штиль 0 2000 м пыль ясно +34.5 +23.1 52 +45 +72 опасность
перегрева
1004.2 995.0
09 21.06 штиль 0 4000 м мгла ясно +38.5 +22.9 41 +48 +73 опасность
перегрева
1002.1 993.0
12 21.06 СВ 2 4000 м мгла ясно +38.0 +24.0 45 +49 +54 опасность
перегрева
999.1 990.0 +39.0
15 21.06 СВ 3 4000 м дым ясно +34.5 +23.9 54 +46 +46 опасность
перегрева
999.9 990.7
18 21.06 СВ 1 4000 м дым ясно +33.0 +23.8 59 +45 +45 опасность
перегрева
1001.1 991.9
21 21.06 штиль 0 4000 м дым ясно +30.0 +23.5 68 +41 +41 опасность
перегрева
1000.7 991.4
00 22.06 штиль 0 4000 м дым ясно +29.0 +23.2 71 +39 +39 очень
душно
1000.6 991.3
03 22.06 штиль 0 4000 м дым ясно +33.0 +24.6 61 +46 +54 опасность
перегрева
1002.0 992.8 +28.8
09 22.06 штиль 0 4000 м ясно +41.0 +23.5 37 +51 +76 опасность
перегрева
1000.2 991.2
12 22.06 штиль 0 4000 м ясно +41.0 +24.4 39 +52 +59 опасность
перегрева
998.2 989.2 +41.5
15 22.06 штиль 0 4000 м ясно +37.0 +24.4 49 +49 +49 опасность
перегрева
998.1 989.0
18 22.06 штиль 0 4000 м ясно +34.0 +25.7 62 +49 +49 опасность
перегрева
999.5 990.3
21 22.06 штиль 0 4000 м ясно +31.0 +25.2 71 +45 +45 опасность
перегрева
999.3 990.0
00 23.06 штиль 0 4000 м ясно +30.0 +25.1 75 +43 +43 опасность
перегрева
999.3 990.0
03 23.06 штиль 0 4000 м ясно +34.0 +24.4 57 +46 +55 опасность
перегрева
1000.2 991.0 +29.5
06 23.06 штиль 0 4000 м ясно +39.0 +23.5 41 +49 +76 опасность
перегрева
1000.2 991.2
09 23.06 штиль 0 4000 м ясно +43.0 +22.5 31 +51 +76 опасность
перегрева
998.6 989.7
15 23.06 штиль 0 4000 м ясно +37.5 +21.6 40 +45 +45 опасность
перегрева
997.1 988.0
18 23.06 СВ 5 4000 м зарница {морось} 10/5 750 м
[Cb cap As trans]
+28.5 +23.5 74 +39 +39 очень
душно
998.0 988.7 0.0
21 23.06 штиль 0 4000 м 5/0
[Ac trans]
+28.0 +23.7 77 +38 +38 очень
душно
998.0 988.6
00 24.06 штиль 0 4000 м 5/0
[Ac trans]
+27.0 +19.5 64 +33 +33 очень
душно
997.8 988.4
03 24.06 СВ 3 4000 м 5/0
[Ac trans]
+29.5 +23.0 68 +39 +43 очень
душно
998.6 989.3 +26.5
06 24.06 СВ 3 4000 м 5/0
[Ac trans]
+35.0 +22.0 47 +44 +56 опасность
перегрева
999.1 989.9
09 24.06 СВ 3 4000 м 5/0
[Ac trans]
+38.0 +21.4 38 +45 +57 опасность
перегрева
997.8 988.7
12 24.06 4000 м ясно +38.5 +23.8 43 998.2 989.2 +40.0
18 24.06 4000 м ясно +33.0 +23.0 56 1002.9 993.7
21 24.06 4000 м ясно +32.0 +22.6 58 1003.7 994.4
00 25.06 штиль 0 50 км ?/? +30.0 +22.8 65 +40 +40 очень
душно
1003.2 993.9
06 25.06 штиль 0 50 км ?/? +37.0 +22.8 44 +46 +46 опасность
перегрева
1004.0 994.9
09 25.06 штиль 0 50 км ?/? +40.0 +23.1 38 +49 +49 опасность
перегрева
1003.2 994.2
12 25.06 штиль 0 50 км ?/? +38.0 +24.0 45 +49 +49 опасность
перегрева
1002.1 993.0 +40.0
15 25.06 штиль 0 4000 м ясно +36.0 +23.2 48 +46 +46 опасность
перегрева
1003.2 994.0
21 25.06 штиль 0 50 км ?/? +31.0 +22.3 60 +40 +40 очень
душно
1002.4 993.1
00 26.06 штиль 0 50 км ?/? +28.0 +22.1 70 +36 +36 очень
душно
1001.8 992.4
06 26.06 штиль 0 4000 м ясно +38.0 +24.0 45 +49 +76 опасность
перегрева
1003.1 994.0

 

Местоположение метеостанции Рахим Яр Хан (Пакистан): широта 28.43 долгота 70.32 высота над уровнем моря 83 м.

В архиве по умолчанию представлена погода в Рахим Яр Хан за последнюю неделю. Архивные данные за месяц целиком и за предыдущие месяцы, начиная с января 2011 года, Вы можете получить, выбрав интересующий диапазон дат из раскрывающегося списка и нажав кнопку "Ввод!".


*Определитесь, кто Вы:
робот инопланетянин человек

Внимание! Время в таблицах - всемирное. Для получения местного времени необходимо прибавить поправку, которая равна 5 ч.

Смотрите также архив погоды в соседних городах и на ближайших метеорологических станциях:

Погода в Ханпуре (Пакистан) (43 км)
Погода в Рохри (Пакистан) (163 км)
Погода в Бархане (Пакистан) (171 км)
Погода в Суккуре (Пакистан) (172 км)
Погода в Бахавалпуре (Пакистан) (178 км)
Погода а Бахавалпур аэропорту (Пакистан) (178 км)
Погода в Джайсалмере (Раджастхан, Индия) (180 км)
Погода в Джейкобабаде (Пакистан) (182 км)
Погода в Дера Гази Хан (Пакистан) (183 км)
Погода в Мултане (Пакистан) (224 км)

Пояснения к столбцам:

Ветер - указаны скорость ветра в м/с - средняя за 10 мин, порывы в срок и между сроками (в фигурных скобках) и направление, откуда дует ветер: С - северный, СВ - северо-восточный, В - восточный, ЮВ - юго-восточный, Ю - южный, ЮЗ - юго-западный, З - западный, СЗ - северо-западный.
Видимость - горизонтальная дальность видимости в метрах или километрах. При видимости от 1 до 10 км при отсутствии осадков обычно наблюдается дымка, при ухудшении видимости до 1 км и менее - туман. В сухую погоду видимость может ухудшаться дымом, пылью или мглою.
Явления - указаны атмосферные явления, наблюдавшиеся в срок или в последний час перед сроком; фигурными скобками обозначены явления, наблюдавшиеся между сроками (за 1-3 часа до срока); квадратными скобками обозначены град или гололедные отложения с указанием их диаметра в мм.
Облачность - указаны через наклонную черту общая и нижняя облачность в баллах и высота нижней границы облаков в метрах; квадратными скобками обозначены формы облаков: Ci - перистые, Cs - перисто-слоистые, Cc - перисто-кучевые, Ac - высококучевые, As - высокослоистые, Sc - слоисто-кучевые, Ns - слоисто-дождевые, Cu - кучевые, Cb - кучево-дождевые. Подробнее классификацию облаков см. в Атласе облаков (PDF).
T - Температура воздуха - температура, измеренная на высоте 2 м над землей.
Td - Температура точки росы - температура, при понижении до которой содержащийся в воздухе водяной пар достигнет насыщения.
f - Относительная влажность воздуха - влажноcть воздуха, измеренная на высоте 2 м над землей.
Te - Эффективная температура - температура, которую ощущает одетый по сезону человек в тени. Характеристика душности погоды. При расчете учитывается влияние влажности воздуха и скорости ветра на теплоощущения человека.
Tes - Эффективная температура на солнце - температура, которую ощущает человек, с поправкой на солнечный нагрев. Характеристика знойности погоды. Зависит от высоты солнца над горизонтом, облачности и скорости ветра. Ночью, в пасмурную погоду, а также при ветре 12 м/с и более поправка равна нулю.
P - Атмосферное давление - приведенное к уровню моря атмосферное давление.
Po - Атмосферное давление - измеренное на уровне метеостанции атмосферное давление.
Tmin - Минимальная температура - минимум температуры воздуха на высоте 2 м над землей.
Tmax - Максимальная температура - максимум температуры воздуха на высоте 2 м над землей.
R - Количество осадков - Количество выпавших осадков за период времени, мм. При наведении курсора мыши на число - период времени, за который выпало указанное количество осадков.
R24 - Количество осадков - Количество выпавших осадков за 24 часа, мм.
S - Снежный покров - Высота снежного покрова, см. При наведении курсора мыши на число - состояние снежного покрова и степень покрытия местности в баллах.